Temperature
14 14 15 15 15 15 15 16 16 17 17 16 16 15 15 14 14 14 14 14 14 14 14 14 14 14 14 14 14 14 14 14 14 14 14 14 14 14
14 14 14 15 15 15 15 15 15 16 17 17 16 15 15 15 14 14 14 14 14 14 14 14 14 14 14 14 14 14 14 14 14 14 14 14 14 14
14 14 14 14 14 15 15 15 15 15 16 16 16 15 14 14 14 14 14 14 14 14 14 14 14 14 14 14 14 14 14 14 14 14 14 14 14 14
14 14 14 14 14 14 14 14 15 15 15 15 15 15 14 14 14 14 14 14 14 14 14 14 14 14 14 14 14 14 14 14 14 14 14 14 14 14
14 14 14 14 14 14 14 14 14 14 14 14 15 15 14 14 14 14 14 14 14 14 14 15 15 15 15 14 14 14 14 14 14 14 14 14 14 13
14 14 14 14 14 14 14 14 14 14 14 14 14 15 14 14 14 14 14 14 14 15 14 14 14 14 15 15 14 14 14 14 14 14 14 14 14 13
14 14 14 14 14 14 14 14 13 13 14 14 14 14 14 14 14 14 14 14 14 14 14 14 14 14 14 14 14 14 14 14 14 14 14 14 14 14
14 14 14 14 14 14 14 14 13 13 13 14 14 14 14 14 14 14 14 14 14 15 14 14 14 14 14 14 14 14 14 14 14 14 14 14 14 14
14 14 14 14 14 13 14 14 13 13 13 13 13 13 13 13 13 13 13 13 13 14 13 13 14 14 14 14 13 13 13 14 14 14 14 14 14 13
14 13 13 13 13 13 13 13 13 13 13 13 13 13 12 12 12 12 12 12 12 12 12 12 13 13 13 13 13 13 13 13 13 13 13 13 13 13
13 13 13 13 13 13 12 12 12 12 12 12 12 12 12 12 12 12 12 12 12 13 13 12 13 13 13 13 13 13 13 13 13 13 13 13 13 13
13 12 12 12 12 12 12 12 12 12 12 11 11 12 12 12 11 11 11 11 12 12 13 12 12 12 12 13 13 12 12 12 12 12 12 12 12 12
12 12 12 12 12 12 11 11 11 11 11 11 11 11 11 11 11 11 11 10 11 11 11 11 11 11 11 12 12 12 12 12 12 11 11 11 11 11
12 11 11 11 11 11 11 11 11 11 10 10 11 11 11 11 10 10 10 10 10 10 10 10 10 10 10 10 11 11 11 11 11 11 11 11 11 11
11 11 11 11 10 10 10 10 10 10 10 10 10 10 10 10 10 9 9 9 9 9 9 9 9 9 9 9 10 10 10 10 10 10 11 11 11 11
10 10 10 10 10 9 9 9 9 9 9 9 9 9 9 9 9 9 9 9 9 9 9 9 9 8 8 8 9 9 9 10 10 10 10 10 10 10
9 9 9 9 9 9 9 9 9 9 9 8 8 8 8 8 8 8 8 8 8 8 8 8 8 8 8 8 8 8 9 9 9 9 9 9 10 10
9 9 9 9 9 9 8 8 8 8 7 7 7 7 7 7 7 7 7 7 7 7 7 7 7 7 7 8 8 8 8 8 8 9 8 9 9 9
8 8 8 8 7 7 7 7 7 7 6 6 6 6 6 6 6 6 6 6 6 6 7 7 7 7 7 7 8 8 8 8 8 8 8 8 8 9
7 7 7 7 6 6 6 6 6 6 6 5 5 5 5 5 5 5 6 6 6 6 6 6 6 6 6 6 6 7 7 7 7 7 7 8 8 8
6 6 6 6 5 5 5 5 5 5 5 4 5 5 5 5 5 5 5 5 5 5 5 5 5 5 5 5 5 6 7 7 6 6 7 7 7 7
5 5 5 5 4 4 4 4 4 4 4 4 4 4 4 4 4 4 4 4 4 4 4 5 5 5 5 5 5 5 6 6 6 6 6 6 6 7
4 4 4 4 4 3 3 3 3 3 3 3 3 3 3 3 3 3 3 3 3 3 4 4 4 4 4 4 5 5 5 6 6 6 6 7 7 7
Wind_Speed
6 6 6 4 4 4 4 5 6 5 4 6 6 5 6 5 5 7 6 8 8 8 9 9 10 10 10 10 10 10 10 10 10 11 11 12 13 14
5 5 6 6 5 5 5 5 6 6 6 2 4 4 4 5 7 8 8 8 11 12 12 12 12 12 13 13 13 13 13 13 13 13 13 13 13 14
7 8 8 7 6 5 5 6 6 6 7 5 4 4 5 7 5 8 9 10 11 16 14 14 14 14 15 15 15 16 16 16 16 15 15 15 15 15
9 9 9 7 8 7 6 7 6 6 7 8 6 6 7 8 8 8 10 11 11 12 15 15 16 16 17 17 17 18 18 18 18 18 18 18 17 17
10 10 10 9 9 8 8 8 7 7 7 8 8 6 7 7 8 9 10 9 12 11 15 18 19 19 19 19 20 20 20 20 20 20 20 20 20 19
10 10 10 10 10 10 9 9 8 8 8 9 9 7 7 7 7 8 9 8 9 10 10 11 15 18 20 21 21 21 21 21 21 21 22 22 22 21
10 10 10 9 8 8 8 8 9 9 9 9 9 8 8 6 7 8 9 8 8 9 9 9 10 12 14 19 22 23 23 22 22 22 23 23 23 23
10 10 10 10 10 10 10 9 9 10 10 9 9 9 8 8 7 8 9 9 10 7 7 9 9 10 11 14 15 19 21 22 22 23 23 23 24 24
9 9 9 9 10 10 11 13 12 12 11 11 12 11 9 8 8 10 9 10 11 9 8 11 11 11 12 14 12 15 19 22 23 24 24 24 24 24
9 9 9 8 7 7 8 10 11 11 12 12 12 12 10 8 8 10 11 11 12 12 11 12 12 12 12 13 14 18 20 22 23 24 25 25 25 25
8 8 8 7 4 4 7 9 10 10 10 11 11 11 10 9 8 9 10 10 12 11 9 11 12 12 12 12 14 17 20 22 23 24 25 25 25 23
6 6 5 5 3 4 8 9 10 10 9 8 9 12 13 13 13 12 11 11 11 11 9 9 11 12 12 11 10 10 13 18 22 24 25 25 24 19
4 4 3 4 4 5 7 8 8 8 9 9 9 9 9 9 9 10 10 10 12 12 10 8 11 12 13 13 12 12 12 12 13 16 22 25 25 21
3 3 1 3 4 5 5 5 6 7 8 8 8 8 7 7 7 7 10 12 13 14 14 12 12 12 14 15 15 13 12 13 13 14 14 16 21 26
2 1 0 2 4 5 6 6 6 6 6 7 7 7 7 7 7 7 10 11 13 16 16 15 13 13 13 15 15 15 15 14 14 14 14 14 14 14
1 1 4 5 5 4 4 5 5 5 5 6 7 7 6 6 7 7 8 8 9 10 10 12 13 13 13 15 15 16 15 15 15 15 15 15 15 15
3 2 2 2 3 3 3 3 4 4 5 5 6 6 6 6 7 6 7 8 9 10 10 9 11 11 13 13 14 15 15 15 15 14 14 16 16 16
4 3 3 3 4 4 4 4 4 4 5 6 6 7 7 7 7 7 8 8 10 10 10 10 10 11 12 13 13 15 15 15 15 14 15 16 17 16
3 3 3 4 4 4 5 5 5 5 5 6 6 6 7 7 8 8 9 9 9 10 10 10 10 11 13 15 13 11 13 14 15 15 15 15 17 16
3 4 4 4 4 5 5 6 6 6 6 6 6 7 7 8 8 9 9 10 10 11 11 11 11 10 12 14 14 15 14 15 15 15 15 15 16 16
4 4 4 5 5 6 6 6 7 7 7 7 7 8 8 8 9 9 10 11 11 11 12 12 11 11 12 12 13 15 14 12 14 15 16 16 16 16
5 6 6 6 6 6 7 7 7 7 8 7 8 8 8 9 10 10 10 11 11 12 13 12 12 12 12 13 15 17 17 15 14 18 20 19 15 15
6 7 7 7 7 7 7 8 9 8 8 8 8 8 9 9 10 10 11 11 11 12 13 13 12 12 13 13 14 15 18 18 14 14 13 15 20 23
Wind_Direction
218 213 235 229 235 242 250 260 267 263 233 196 215 200 212 216 176 225 225 191 211 228 235 239 243 248 251 254 256 256 256 258 258 256 253 252 251 251
234 235 237 235 224 233 240 247 257 270 274 236 212 211 216 236 195 230 243 202 225 232 237 242 245 247 250 252 253 254 254 255 256 255 254 253 254 254
221 221 227 243 237 232 232 238 242 248 258 257 234 216 218 251 227 236 243 241 237 217 227 239 246 249 251 252 253 253 253 253 254 254 254 254 254 255
223 224 225 222 225 243 241 240 242 249 255 262 254 233 222 233 239 247 251 247 255 215 216 235 244 248 250 252 252 253 254 254 254 254 254 254 254 254
227 226 227 228 228 232 235 242 240 235 242 254 253 246 239 233 237 243 249 253 260 242 219 229 238 243 247 249 250 250 251 253 254 254 254 254 254 254
231 233 234 232 231 233 233 240 246 248 242 249 254 247 242 234 240 251 250 236 249 258 251 242 235 235 241 245 246 247 248 249 251 252 254 255 255 255
231 233 236 237 243 242 247 239 236 241 244 244 250 251 248 243 245 251 258 262 252 253 257 254 244 242 238 236 238 242 244 246 249 251 252 253 254 255
234 234 233 226 229 230 251 267 269 252 253 255 254 254 257 256 259 265 269 269 269 255 256 263 261 261 258 256 236 228 234 242 248 251 252 253 254 254
238 239 242 236 222 231 225 228 243 252 258 261 263 264 264 261 265 262 262 269 274 278 273 272 268 265 263 262 240 229 235 242 248 251 253 254 254 254
238 238 240 249 241 240 244 240 241 239 238 242 255 262 268 274 263 263 271 265 264 261 259 266 270 267 268 268 247 234 239 244 249 252 254 255 255 255
238 238 238 239 229 223 246 254 256 255 244 235 244 257 271 273 268 265 263 263 267 267 253 259 271 275 274 271 263 236 235 242 247 251 253 254 255 256
231 231 225 233 232 219 244 252 257 261 265 252 240 245 249 246 231 240 257 263 270 273 268 259 270 277 278 272 269 265 251 244 242 245 247 250 250 253
237 235 216 182 219 230 242 252 262 272 268 262 255 250 247 246 242 238 245 256 267 271 280 282 277 278 277 280 280 275 272 272 263 255 246 244 242 240
255 265 189 157 209 230 238 256 268 265 262 262 260 259 259 258 259 259 256 256 259 266 276 279 275 276 278 279 280 280 279 276 274 273 273 259 241 237
289 46 75 202 224 228 223 236 249 256 264 267 270 272 273 274 272 267 262 257 258 260 264 263 264 269 271 274 278 280 280 278 275 274 273 271 268 259
289 176 193 214 235 255 237 230 250 272 282 282 283 287 289 283 276 278 279 279 277 277 268 264 264 266 268 271 274 276 277 277 277 276 275 274 270 266
322 282 275 272 272 278 283 289 287 281 277 283 289 289 290 290 287 285 283 282 280 284 287 282 273 266 265 271 274 275 277 278 277 278 277 275 271 268
300 294 304 307 311 317 314 313 310 311 310 306 300 296 295 293 292 289 284 282 283 286 287 290 291 287 281 272 255 270 275 278 281 280 278 276 275 272
300 338 341 339 337 334 327 322 318 320 316 305 302 303 301 296 294 291 289 288 286 287 289 289 287 286 286 287 281 260 279 286 286 283 278 275 275 276
347 353 347 342 335 327 321 319 316 314 310 306 302 300 298 295 292 290 288 288 289 291 289 287 285 287 288 291 293 291 278 279 282 283 283 283 279 277
358 354 348 342 336 329 324 318 316 312 312 307 301 301 298 296 295 295 294 292 288 288 289 291 296 298 292 288 283 282 284 274 273 278 284 284 283 281
352 347 343 336 331 326 323 319 315 311 309 303 305 305 302 300 299 298 297 297 295 293 295 296 299 295 288 284 286 290 293 291 278 260 254 258 270 276
353 350 342 336 333 328 323 319 316 312 311 310 309 308 306 304 302 299 297 294 294 294 296 297 297 294 290 289 290 291 292 293 291 288 279 257 247 253
Height
1567 1567 1568 1570 1570 1571 1572 1573 1574 1573 1573 1573 1574 1574 1574 1575 1574 1574 1574 1573 1573 1573 1573 1573 1572 1572 1572 1571 1571 1571 1571 1571 1571 1571 1572 1572 1572 1572
1564 1565 1566 1567 1568 1569 1569 1570 1571 1572 1571 1571 1572 1572 1572 1572 1571 1571 1571 1570 1570 1570 1570 1570 1569 1569 1568 1568 1568 1567 1567 1567 1567 1567 1567 1567 1567 1567
1561 1562 1563 1564 1565 1566 1567 1567 1568 1569 1569 1569 1569 1569 1568 1568 1569 1568 1568 1568 1568 1566 1566 1566 1565 1565 1565 1564 1564 1564 1563 1563 1563 1563 1563 1563 1563 1563
1559 1559 1560 1561 1561 1563 1564 1564 1565 1565 1566 1566 1566 1566 1565 1564 1564 1564 1565 1565 1565 1564 1562 1562 1561 1561 1561 1560 1560 1560 1559 1559 1559 1558 1558 1558 1558 1558
1556 1556 1557 1558 1558 1559 1559 1561 1561 1562 1562 1562 1562 1562 1562 1561 1561 1560 1560 1559 1560 1560 1558 1557 1556 1556 1556 1555 1555 1555 1554 1554 1554 1554 1553 1553 1552 1552
1552 1553 1553 1554 1555 1555 1556 1556 1557 1558 1558 1558 1558 1558 1558 1557 1557 1557 1557 1556 1555 1555 1554 1553 1551 1551 1550 1550 1549 1549 1549 1548 1548 1548 1547 1547 1547 1546
1547 1548 1549 1549 1550 1551 1552 1553 1553 1553 1554 1554 1554 1554 1554 1553 1553 1553 1552 1552 1551 1550 1549 1548 1548 1546 1545 1543 1543 1543 1542 1542 1541 1541 1541 1540 1540 1540
1543 1543 1544 1544 1545 1545 1546 1547 1548 1549 1549 1549 1549 1549 1549 1549 1549 1548 1548 1547 1546 1546 1544 1543 1542 1541 1540 1539 1537 1536 1535 1535 1534 1534 1533 1533 1532 1532
1538 1538 1539 1540 1540 1540 1540 1541 1542 1542 1543 1543 1543 1543 1543 1543 1543 1542 1541 1541 1540 1540 1538 1536 1536 1534 1533 1532 1531 1529 1528 1527 1527 1526 1525 1524 1524 1523
1533 1533 1533 1534 1535 1535 1535 1536 1536 1536 1536 1537 1536 1537 1537 1537 1536 1536 1535 1534 1532 1532 1531 1529 1528 1527 1526 1525 1523 1521 1520 1519 1518 1517 1516 1515 1515 1514
1527 1528 1528 1529 1529 1529 1530 1530 1530 1531 1531 1530 1530 1530 1530 1530 1530 1529 1529 1528 1526 1526 1525 1523 1522 1521 1519 1517 1516 1514 1512 1511 1510 1508 1507 1506 1506 1505
1522 1523 1523 1523 1523 1524 1524 1524 1525 1525 1525 1524 1523 1522 1522 1522 1522 1522 1521 1521 1520 1519 1518 1517 1515 1514 1511 1510 1509 1507 1505 1503 1501 1500 1498 1498 1497 1496
1519 1519 1518 1518 1518 1518 1519 1519 1519 1519 1518 1517 1517 1517 1516 1515 1515 1514 1514 1514 1513 1512 1512 1510 1508 1507 1505 1502 1501 1500 1499 1497 1495 1492 1491 1489 1488 1487
1514 1515 1514 1514 1514 1513 1514 1513 1513 1513 1512 1512 1511 1511 1510 1509 1509 1508 1507 1506 1505 1504 1503 1502 1500 1499 1497 1494 1492 1491 1490 1489 1487 1485 1484 1482 1480 1478
1510 1510 1510 1509 1509 1509 1509 1509 1508 1508 1508 1507 1506 1505 1504 1503 1502 1501 1500 1499 1497 1496 1495 1493 1492 1490 1489 1487 1484 1483 1482 1480 1479 1477 1475 1473 1472 1470
1507 1507 1506 1506 1506 1506 1505 1505 1504 1504 1503 1502 1501 1500 1499 1498 1497 1496 1494 1493 1491 1489 1488 1486 1484 1483 1480 1479 1477 1474 1473 1471 1470 1468 1466 1463 1462 1460
1504 1505 1505 1504 1504 1503 1503 1502 1501 1500 1499 1497 1496 1495 1494 1493 1491 1490 1488 1486 1485 1482 1481 1480 1478 1476 1473 1471 1469 1466 1465 1462 1461 1458 1456 1453 1452 1451
1503 1504 1503 1502 1501 1500 1499 1498 1497 1496 1495 1493 1492 1490 1489 1487 1486 1484 1483 1481 1479 1477 1475 1473 1472 1469 1467 1464 1463 1459 1457 1454 1452 1450 1447 1444 1442 1441
1503 1502 1501 1500 1499 1498 1496 1495 1494 1492 1490 1489 1488 1486 1484 1483 1481 1479 1477 1476 1474 1472 1469 1468 1466 1463 1460 1456 1454 1453 1450 1446 1444 1441 1439 1436 1433 1431
1502 1501 1499 1498 1497 1495 1494 1492 1491 1489 1487 1486 1484 1482 1480 1478 1476 1474 1473 1471 1468 1466 1464 1462 1460 1457 1454 1450 1446 1444 1443 1439 1436 1433 1430 1427 1424 1422
1500 1499 1498 1496 1495 1493 1491 1490 1488 1486 1484 1482 1480 1478 1476 1474 1472 1470 1468 1465 1463 1460 1458 1456 1453 1451 1447 1444 1439 1436 1434 1432 1429 1425 1422 1419 1415 1413
1499 1498 1496 1494 1493 1491 1489 1487 1485 1483 1480 1478 1476 1474 1472 1469 1467 1465 1462 1460 1457 1455 1452 1449 1446 1444 1441 1437 1433 1429 1425 1423 1420 1417 1414 1412 1409 1404
1498 1496 1494 1492 1490 1488 1486 1484 1481 1479 1476 1474 1472 1469 1467 1464 1462 1459 1457 1454 1452 1449 1446 1443 1440 1437 1434 1431 1426 1422 1418 1415 1412 1409 1406 1404 1401 1398